GFSNW_700_spd_147.txt.gz
Wind_Speed
34 33 32 30 24 24 28 30 33 34 25 34 43 54 53 49 46 37 38 38 36 32 25 21 26 36 31 17 29 26 38 19 33 25 16 21 25 25 26 15 6 7 3 7
35 34 32 29 25 25 27 30 32 29 27 40 48 51 49 48 49 47 44 42 42 37 40 33 34 29 32 29 28 19 29 19 18 11 19 21 21 25 28 24 15 14 6 6
35 34 32 29 25 24 25 24 23 21 30 41 38 42 50 53 52 47 41 37 32 31 31 34 32 30 28 29 28 27 21 25 24 19 6 22 20 18 18 25 25 19 22 21
35 33 31 28 23 24 25 28 28 32 36 48 46 42 48 41 46 42 43 42 44 36 39 32 26 26 22 26 28 22 29 28 31 26 23 23 25 32 31 29 26 21 22 20
34 33 30 29 25 26 26 29 34 33 40 40 44 51 56 53 46 37 44 46 38 34 36 40 30 28 35 37 35 32 36 19 24 24 21 18 23 28 29 25 23 21 21 20
32 31 30 29 27 28 29 33 35 36 39 39 33 44 55 58 44 39 33 36 42 43 43 32 29 29 26 24 31 35 29 27 19 13 18 17 17 26 26 24 22 22 21 14
30 29 29 29 27 28 28 29 31 36 43 36 40 39 39 48 52 35 22 30 31 34 28 27 22 21 25 26 26 28 29 23 16 5 18 8 12 21 23 22 22 19 16 14
27 27 28 29 25 27 26 25 25 33 26 25 28 29 36 35 34 35 25 25 19 18 30 25 24 22 25 26 34 21 12 11 15 10 15 7 15 21 26 27 23 22 19 17
25 26 28 26 25 25 27 25 21 33 29 22 18 26 28 26 25 27 33 27 27 23 31 29 16 9 10 11 11 17 17 20 24 14 8 5 14 13 19 16 21 18 19 17
22 23 24 25 24 24 23 27 29 23 24 25 20 25 31 30 27 25 28 23 24 28 28 22 14 8 15 11 16 25 25 23 29 15 9 8 11 11 14 13 4 5 8 11
21 20 20 20 19 15 16 18 25 25 27 20 15 17 27 31 33 33 29 26 30 31 28 25 9 8 17 10 17 24 29 20 17 15 9 8 12 13 14 8 6 4 6 8
20 18 19 20 23 22 19 17 16 24 29 22 20 21 22 28 35 32 31 28 34 30 32 18 10 11 15 15 14 21 21 24 18 18 13 12 5 15 11 9 7 6 7 8
17 22 23 18 24 24 24 16 18 24 13 21 22 20 20 26 28 36 34 39 30 33 31 19 15 8 16 19 20 23 27 27 21 17 21 15 14 13 12 10 9 8 7 6
18 27 22 16 15 17 20 18 18 21 26 17 18 15 22 20 29 28 30 27 39 30 25 20 11 14 12 16 14 22 21 25 26 25 17 13 14 14 13 11 10 8 7 6
16 28 22 18 16 15 23 27 27 26 26 21 17 15 20 22 19 18 8 8 7 13 21 16 18 18 18 22 21 20 24 23 24 23 20 16 11 11 12 12 11 9 8 8
19 24 24 19 16 24 20 26 27 29 22 25 18 18 20 22 21 16 11 9 11 13 15 16 18 19 16 10 14 18 20 18 14 14 13 13 15 13 14 13 10 10 9 7
21 27 20 20 17 18 30 25 24 23 23 25 22 17 23 25 18 16 12 12 14 17 18 15 15 12 11 12 14 12 14 18 16 13 11 10 10 10 11 12 11 11 8 6
24 28 19 16 13 7 27 28 23 22 29 17 11 20 20 21 18 17 16 16 19 20 19 20 20 17 15 14 16 14 12 14 14 13 11 11 10 11 12 12 12 8 7 7
23 29 17 15 19 15 25 23 17 14 6 5 11 20 20 19 17 16 15 15 15 15 20 22 18 22 16 15 16 15 13 11 9 11 11 11 10 11 13 12 10 9 9 9
25 23 24 28 25 25 25 20 16 11 9 9 13 20 17 21 20 18 16 11 11 7 14 13 20 27 29 25 12 14 13 14 13 11 11 12 14 14 13 11 11 10 10 10
27 27 27 28 31 26 16 8 5 6 6 9 15 15 14 20 19 17 13 7 6 5 7 12 7 22 24 20 20 13 12 13 14 16 17 15 12 11 10 8 8 9 11 11
24 19 19 26 20 10 6 8 6 5 5 17 20 16 18 18 14 12 7 6 6 4 6 9 6 13 9 16 16 14 14 13 12 11 12 13 13 11 10 9 10 11 12 10
23 21 8 8 4 3 6 6 7 7 17 21 19 20 16 14 8 6 6 5 5 3 7 5 8 6 9 17 16 17 16 14 14 12 13 13 12 10 9 9 12 13 12 12
25 9 9 4 4 6 7 12 12 14 15 18 19 17 11 10 7 4 4 4 5 5 5 4 6 7 12 16 17 16 14 13 13 13 12 12 11 11 9 9 12 14 15 14
9 7 4 6 7 10 13 17 12 15 16 15 15 13 5 8 3 4 3 4 3 4 4 4 5 8 13 15 16 14 14 13 13 13 13 12 11 11 10 10 14 17 17 15
7 4 8 10 13 14 15 16 18 19 18 17 12 9 4 5 3 4 4 3 3 3 6 5 7 11 12 15 15 14 14 14 15 15 15 13 12 13 12 11 14 18 19 19
6 7 11 12 14 14 14 17 18 18 19 19 7 6 5 4 3 5 4 4 3 5 6 6 6 11 15 16 16 14 14 14 14 13 12 12 12 11 11 12 16 19 22 23

GFSNW_700_spd_150.txt.gz
Wind_Speed
38 35 32 26 24 25 25 25 26 19 19 24 33 41 41 38 37 31 28 31 30 31 26 24 21 26 25 12 13 18 21 19 32 38 36 21 13 31 33 21 12 18 10 17
39 34 31 25 24 24 22 24 24 20 22 33 38 38 39 38 42 40 36 35 35 33 34 32 37 36 32 25 27 28 23 13 25 22 25 25 27 20 25 30 15 17 7 8
37 34 30 24 24 23 23 26 21 20 29 36 35 36 40 43 42 39 35 40 35 31 36 35 40 38 38 31 30 25 23 26 24 21 7 8 28 30 25 26 20 17 25 29
37 34 30 26 26 25 26 28 28 30 29 37 34 35 40 37 37 34 34 33 36 35 30 31 32 29 27 25 26 28 27 30 24 31 31 29 19 20 31 27 26 21 30 34
37 34 30 27 27 27 30 33 32 25 31 30 30 35 41 38 37 34 37 36 32 30 46 46 35 29 31 22 17 25 31 25 27 28 27 25 30 29 27 28 33 31 31 24
36 36 33 30 30 30 34 34 35 32 27 30 30 38 37 39 35 41 39 43 41 38 34 27 25 27 27 28 24 24 32 31 23 28 24 23 22 36 30 29 29 30 32 25
34 32 31 29 29 30 31 33 34 35 36 35 36 36 34 39 40 43 39 35 35 25 12 27 28 34 34 33 33 30 26 23 24 13 12 7 19 12 21 22 25 31 28 18
33 31 28 28 28 29 31 31 33 32 42 43 40 33 34 38 40 33 30 26 13 7 16 18 25 28 20 22 22 23 29 26 17 6 11 6 9 9 16 24 30 28 24 20
33 29 26 26 27 27 29 27 29 33 30 34 24 27 25 23 21 22 24 17 17 22 16 23 16 9 12 8 14 30 29 30 19 7 4 3 5 11 14 22 29 24 22 19
30 26 25 26 28 25 27 26 28 28 35 34 25 29 30 22 19 18 17 16 19 22 22 22 22 14 12 9 11 15 28 18 22 21 10 7 15 13 13 14 6 7 14 15
26 24 24 24 25 25 26 24 28 34 31 29 21 20 20 20 18 18 17 16 25 22 25 23 12 16 20 14 15 19 24 17 16 19 12 12 10 15 14 11 8 6 7 9
25 23 21 21 23 24 21 21 19 25 33 27 23 25 23 22 21 23 24 22 20 25 24 21 20 13 13 20 9 16 20 24 19 17 21 12 4 14 14 12 9 6 7 8
23 22 21 19 18 22 27 22 15 15 25 30 28 25 24 23 21 23 28 26 26 30 32 25 16 13 15 15 17 18 22 20 22 18 21 19 13 13 12 14 12 8 9 9
23 21 19 23 20 23 28 22 16 17 25 24 24 15 22 22 20 19 25 31 31 31 29 32 24 18 14 17 17 23 22 21 26 27 23 15 15 15 14 14 11 10 9 9
20 17 22 23 19 17 23 23 23 22 20 11 25 24 15 14 14 13 19 24 29 27 30 23 25 20 14 15 15 18 21 23 24 28 25 24 15 9 12 14 13 12 9 8
19 17 24 23 16 14 16 20 22 20 19 18 12 14 15 15 17 18 10 12 8 5 8 10 9 16 12 8 17 21 23 18 18 16 17 10 13 15 14 16 15 12 11 10
17 18 24 20 16 16 21 15 19 22 25 17 12 12 20 22 17 12 10 9 7 8 10 9 11 12 14 19 13 9 13 16 16 13 13 13 13 12 15 17 16 15 13 11
15 18 21 14 13 9 16 19 23 29 23 21 8 10 25 24 19 16 14 12 12 14 12 12 10 9 10 5 5 3 5 8 13 15 14 14 11 13 14 16 16 13 11 10
13 17 16 11 11 23 25 22 22 22 12 7 12 19 25 23 20 16 15 14 15 15 18 18 12 15 11 7 10 11 12 11 10 13 15 11 10 12 14 15 14 13 11 9
18 19 15 11 24 28 25 23 17 7 4 4 16 24 16 24 19 17 14 11 10 5 11 12 18 24 23 23 20 15 12 13 15 13 9 9 11 12 13 13 13 12 10 9
22 24 15 17 29 28 14 6 6 5 6 9 13 19 12 18 18 17 12 5 5 4 6 8 6 14 16 18 19 18 17 14 15 14 13 15 12 11 13 12 10 8 9 10
21 17 27 31 23 8 5 7 6 6 6 12 18 18 15 16 16 10 9 5 5 3 4 5 3 6 7 8 14 13 13 12 12 13 13 15 17 17 15 12 10 10 11 10
18 17 17 12 5 5 6 6 6 6 10 15 19 17 15 14 9 5 6 5 4 3 3 3 3 4 6 9 13 13 12 12 13 12 13 14 15 13 12 11 9 10 11 12
12 7 6 4 5 5 7 9 9 8 15 18 17 18 10 11 8 5 4 4 3 3 3 3 5 5 7 12 14 12 11 13 13 13 13 12 12 12 12 10 9 11 13 14
9 6 3 5 4 8 10 11 10 14 18 18 17 10 9 8 3 3 2 3 2 3 4 5 3 4 7 12 12 12 12 12 12 13 13 13 12 11 12 11 10 12 15 15
6 4 6 6 7 9 12 12 16 19 20 18 14 6 5 4 2 2 2 2 2 4 5 2 3 6 10 13 13 13 13 14 14 14 14 13 12 13 14 12 11 12 16 18
6 5 5 6 8 10 12 12 15 17 17 15 6 5 3 3 2 3 2 3 4 4 3 3 4 8 12 16 15 14 14 15 15 14 14 14 14 14 14 14 15 16 16 18

GFSNW_700_spd_153.txt.gz
Wind_Speed
36 38 37 35 34 32 29 27 26 21 23 27 33 37 34 30 26 22 23 24 23 24 21 16 16 21 16 11 6 9 10 15 19 20 22 28 29 17 19 23 10 19 19 19
37 36 37 35 33 31 28 26 25 22 23 32 35 34 33 31 30 24 22 23 27 26 24 19 20 24 28 26 22 18 14 11 12 18 15 24 21 28 29 25 23 29 10 12
38 36 36 34 32 29 28 27 25 26 28 30 29 29 31 29 31 29 26 29 30 29 29 25 28 30 29 24 23 22 21 23 26 26 16 12 15 25 30 24 16 14 29 21
35 41 35 33 30 29 29 30 28 27 23 31 29 27 27 23 26 26 22 26 20 19 26 19 29 29 28 23 17 15 16 26 27 34 34 28 26 25 23 33 38 22 27 20
38 34 36 33 31 30 30 32 29 26 27 23 22 25 30 26 24 25 26 26 20 24 30 28 29 20 16 17 12 12 15 22 20 31 33 36 38 31 30 31 33 36 39 30
38 33 32 34 33 34 33 33 31 26 22 23 24 29 27 25 19 26 22 21 23 27 21 24 24 19 19 26 20 17 22 18 16 21 17 17 19 37 39 39 41 38 32 32
42 38 34 34 34 34 33 35 31 26 30 28 26 27 26 25 22 28 29 30 30 14 17 14 13 19 18 20 24 21 24 21 19 18 14 7 19 25 26 25 31 33 28 20
34 30 31 33 34 33 33 30 31 30 32 30 29 30 29 27 26 28 29 27 21 17 18 13 10 14 21 24 27 26 29 29 19 9 15 20 15 12 16 21 17 17 22 25
32 28 27 29 32 32 32 31 33 33 29 32 27 28 28 29 28 26 28 15 18 14 20 17 8 5 7 6 6 16 18 22 27 14 7 5 9 7 7 6 20 20 23 24
30 27 28 29 29 29 30 29 29 33 37 35 27 22 16 18 18 24 19 11 12 19 23 17 17 14 6 7 9 10 21 27 33 29 12 7 9 12 8 8 10 6 19 21
27 27 27 27 27 27 28 26 27 31 34 30 27 25 25 21 15 17 11 7 15 21 19 14 10 14 17 15 13 13 14 14 15 13 3 9 12 7 13 10 6 5 5 11
25 26 26 26 25 23 25 27 25 22 26 26 26 29 26 22 20 18 19 19 11 14 11 18 12 12 13 23 17 22 19 23 15 12 11 8 5 13 10 11 7 5 5 7
24 25 24 23 22 22 25 24 19 22 20 26 30 27 18 19 16 20 22 25 24 20 23 21 19 12 17 18 21 20 20 20 21 16 18 18 14 16 10 10 12 9 10 9
25 23 22 20 20 20 22 22 19 17 17 18 18 13 16 19 20 18 23 25 27 26 25 28 31 23 17 17 17 14 17 14 19 21 20 14 12 16 19 14 13 12 12 11
22 21 19 19 21 22 23 22 27 22 20 8 10 14 22 22 17 21 15 15 18 27 30 29 30 30 24 19 19 21 20 20 22 21 17 19 21 18 13 14 14 13 12 10
22 18 18 22 23 19 19 25 24 23 23 23 24 14 13 12 12 15 10 17 21 26 22 22 22 23 22 13 20 21 16 16 18 17 15 14 11 16 16 14 15 15 13 10
18 19 19 23 23 21 22 20 18 21 23 26 21 12 12 13 15 16 17 18 11 7 6 7 6 9 14 11 17 15 13 13 18 13 11 11 11 9 13 16 17 17 14 12
19 17 20 22 21 17 19 21 15 17 24 23 8 6 13 19 21 15 15 13 11 9 9 7 5 5 10 7 8 6 8 5 8 10 11 11 11 12 14 15 16 15 13 11
16 17 19 17 17 18 17 19 21 25 24 13 12 13 16 24 21 16 13 12 11 8 10 9 7 10 7 3 4 4 3 5 6 9 12 12 13 11 12 13 15 15 13 12
15 21 19 17 11 13 18 24 23 10 13 13 15 21 19 24 22 18 15 10 9 5 10 12 19 24 19 17 14 10 7 7 8 11 11 11 9 10 12 12 14 15 14 13
21 22 14 10 20 19 26 13 9 8 8 8 17 22 21 23 22 18 11 5 6 5 8 9 5 8 12 16 20 21 18 14 13 14 16 13 15 11 12 16 17 14 12 12
20 18 11 19 21 8 5 8 8 5 4 8 16 20 17 19 17 10 9 5 5 4 5 6 4 8 9 8 13 16 15 14 14 13 13 14 15 17 17 17 14 12 13 12
19 19 16 11 7 6 7 8 8 7 9 14 19 19 16 14 14 7 6 5 5 4 4 4 7 6 6 8 11 13 12 11 11 11 12 14 15 18 19 16 13 11 11 12
18 8 6 3 7 5 7 12 10 7 11 19 19 18 12 12 11 5 4 5 4 3 3 3 5 8 5 7 11 11 10 10 10 11 12 13 14 15 14 13 11 9 10 13
6 5 4 4 6 8 12 12 10 14 21 20 18 11 10 12 5 5 3 3 1 1 2 5 5 5 3 9 11 10 10 10 11 11 12 14 14 14 13 12 12 11 10 13
6 3 7 7 9 10 11 11 14 21 22 20 15 7 6 4 5 4 3 2 1 3 6 3 1 2 4 10 13 12 12 12 12 13 13 13 13 13 13 13 13 12 12 13
6 8 10 10 11 11 12 15 19 20 21 16 6 4 4 6 4 4 3 2 3 5 4 1 2 4 8 11 13 13 12 12 12 12 12 12 12 12 12 13 14 14 14 14

GFSNW_700_spd_156.txt.gz
Wind_Speed
36 38 35 35 36 35 35 33 31 28 28 29 33 35 26 29 24 24 21 21 20 14 9 11 12 14 10 6 6 6 8 9 17 21 18 18 18 18 17 24 13 23 27 30
34 34 41 41 35 33 35 32 31 27 29 33 33 30 29 28 26 23 21 18 19 16 12 11 14 16 13 16 15 7 8 13 18 21 20 19 23 25 27 30 29 31 23 15
36 34 40 42 44 41 36 33 31 31 31 34 26 24 25 25 26 23 23 21 21 20 19 18 12 13 11 12 14 18 19 25 27 26 21 12 16 17 21 24 24 30 32 34
37 34 39 38 42 39 38 36 30 30 31 39 29 25 23 25 22 19 19 18 13 12 12 14 20 19 19 19 17 16 17 26 26 32 32 28 30 30 26 27 29 29 30 22
41 36 36 39 40 38 36 37 35 30 30 21 23 32 30 24 18 18 15 15 9 12 18 17 18 15 13 15 10 12 18 22 18 24 23 25 29 28 29 33 34 34 37 42
45 40 36 43 42 42 42 39 35 30 28 28 27 27 23 18 14 18 10 11 13 17 15 19 22 22 24 23 17 16 14 12 11 20 16 16 20 26 23 26 28 30 36 36
45 38 37 44 43 41 40 37 33 30 23 24 26 22 18 16 15 16 13 14 18 18 21 21 21 20 22 24 21 24 22 15 13 14 14 11 16 16 20 24 27 30 34 35
42 37 36 41 42 40 37 33 29 30 22 21 21 20 18 15 17 20 20 15 16 13 28 27 17 12 14 23 26 23 25 20 14 11 18 21 28 23 21 18 24 18 18 20
40 39 35 34 36 37 35 29 25 21 22 22 21 18 19 18 17 20 21 14 19 17 19 22 12 9 9 6 7 20 22 23 24 18 10 9 7 10 11 11 17 11 11 14
44 42 35 33 32 34 32 26 29 30 25 27 23 21 18 13 13 12 13 15 11 17 19 17 15 15 11 7 9 12 17 20 26 27 20 16 16 16 10 8 8 14 10 16
39 37 34 32 32 31 29 26 28 28 32 30 28 27 22 17 17 17 13 11 10 13 16 16 14 13 13 14 10 10 11 10 11 16 16 15 13 13 13 10 9 8 7 10
39 36 33 30 28 27 28 25 25 26 26 26 25 31 27 25 19 16 18 19 6 13 15 16 12 11 8 13 18 15 13 18 12 10 7 11 4 9 12 12 12 5 4 7
35 31 29 29 27 26 25 24 21 19 20 24 25 21 17 20 22 24 26 19 18 22 18 16 14 13 12 14 15 15 19 21 19 15 17 18 16 15 15 12 9 9 8 10
32 29 29 28 25 24 24 24 21 21 16 21 16 11 13 14 23 24 23 21 23 20 23 24 24 19 16 16 18 15 13 13 18 22 23 18 13 10 14 14 15 12 10 11
29 29 28 25 22 20 21 19 19 23 24 10 15 16 13 15 15 21 19 24 21 29 25 31 30 28 25 28 26 22 22 20 20 21 15 13 12 14 14 13 13 13 11 11
29 28 25 21 20 19 19 18 19 24 22 23 23 15 11 11 20 21 19 20 21 21 18 25 28 32 28 18 20 20 20 22 21 23 17 17 14 9 13 15 13 14 14 14
27 23 20 20 21 24 28 25 22 19 22 21 19 20 17 15 16 16 18 17 18 19 21 16 15 17 19 23 19 14 11 13 16 19 15 13 10 11 9 15 17 17 16 15
23 19 17 18 21 24 26 23 16 10 18 23 15 13 13 13 17 19 19 18 17 11 10 8 8 8 10 13 14 15 15 12 11 13 15 12 10 11 11 13 16 17 16 14
21 20 16 19 23 26 21 20 22 22 23 13 15 16 10 15 21 21 20 18 12 9 10 14 8 10 7 5 7 6 10 6 6 8 10 11 12 12 13 13 14 16 16 15
19 20 24 23 23 20 15 14 15 23 30 18 21 20 12 16 21 20 14 11 10 2 7 8 14 20 17 16 15 10 8 6 3 7 9 11 12 13 12 12 14 16 16 16
19 21 20 18 17 16 15 10 14 13 13 23 25 23 21 22 25 20 13 6 5 4 7 9 6 7 16 19 20 20 19 18 16 13 13 12 12 13 12 13 16 18 18 17
19 20 17 17 19 10 9 13 9 8 10 12 20 22 21 24 24 14 10 5 5 5 6 5 4 13 14 14 16 20 21 21 17 16 15 14 13 12 16 16 17 17 16 14
19 14 18 8 8 7 8 9 9 8 10 12 14 20 20 22 16 7 6 7 6 4 5 4 8 9 9 9 11 11 14 13 13 15 14 14 14 13 16 18 18 18 15 13
17 9 8 6 6 6 8 15 13 9 9 12 14 17 9 10 10 5 5 7 5 4 3 4 8 9 8 7 7 10 12 12 13 13 12 12 12 13 16 19 18 15 13 13
7 4 3 4 6 11 12 15 14 13 12 17 17 12 8 13 6 5 5 5 4 5 4 6 8 6 4 5 8 11 12 11 10 9 9 11 12 13 14 14 14 14 13 12
4 2 6 11 12 12 13 13 13 19 22 21 16 9 7 7 4 5 4 5 4 4 4 4 4 2 2 5 9 10 10 10 10 10 10 11 13 14 14 14 15 14 14 14
4 7 7 10 13 11 11 14 22 24 23 19 7 6 6 7 5 6 6 6 4 3 4 4 3 2 4 6 9 9 8 9 10 10 11 11 12 13 13 14 14 15 15 14

GFSNW_700_spd_159.txt.gz
Wind_Speed
39 40 40 36 32 34 35 34 27 31 31 31 32 28 19 20 15 21 18 17 12 11 10 12 15 15 12 8 9 11 10 14 20 22 19 19 22 28 28 24 21 27 29 31
42 41 37 36 32 35 39 35 35 26 33 29 25 17 20 15 18 17 15 15 16 12 14 11 14 17 15 15 14 8 9 16 18 22 21 20 25 25 28 30 31 33 22 26
44 41 36 33 33 37 37 36 31 29 34 32 20 22 20 18 22 15 16 12 14 14 14 15 11 13 14 14 16 21 21 23 24 28 23 20 22 20 20 22 24 29 33 34
47 41 40 35 32 39 39 39 37 31 28 39 23 22 17 21 14 18 18 16 21 16 14 15 22 20 20 20 20 20 19 29 24 30 31 29 32 34 33 33 34 33 40 34
45 46 44 35 32 43 41 44 41 39 28 26 40 25 28 18 19 15 17 19 11 14 19 18 10 10 13 17 16 18 18 31 25 33 27 28 34 34 33 32 33 37 38 45
46 45 46 34 32 42 47 48 38 25 34 30 23 27 25 21 17 19 19 13 15 15 14 17 23 22 22 23 18 18 19 21 17 32 24 27 29 27 30 31 31 31 34 30
47 51 45 35 32 37 46 47 39 24 18 26 31 21 23 19 17 19 10 16 17 14 21 25 22 24 23 23 25 27 27 23 21 29 22 19 26 18 19 22 23 26 26 29
51 54 46 34 33 38 45 46 39 24 20 20 18 20 17 21 21 23 19 17 15 17 22 21 20 16 18 25 27 29 28 26 24 25 22 23 24 24 20 17 20 19 22 21
53 54 44 37 36 39 40 39 37 31 19 19 19 18 18 16 14 14 17 13 14 18 20 21 16 13 14 9 8 18 22 23 27 23 21 14 17 8 15 17 23 7 8 11
51 47 36 35 32 38 39 30 31 32 21 21 20 20 17 16 16 13 13 12 17 19 21 21 18 21 17 19 11 10 24 26 31 32 24 23 19 15 7 10 14 13 14 10
54 45 39 36 32 35 37 34 22 23 24 23 25 24 18 16 18 13 10 12 15 15 18 19 18 15 15 18 16 15 19 18 23 24 28 20 11 9 12 14 13 10 13 11
51 42 41 36 33 30 29 30 25 23 23 18 32 27 23 22 19 18 21 18 1 10 10 14 13 16 10 14 18 19 19 20 16 11 9 9 7 9 12 11 12 13 7 9
45 42 39 34 30 28 27 26 24 21 21 24 26 22 17 21 24 27 27 21 23 21 14 15 16 15 12 16 18 18 14 17 19 17 15 16 16 20 16 16 15 11 10 9
42 40 36 33 30 27 27 26 21 21 19 22 17 13 17 19 22 25 27 26 23 21 24 23 25 18 14 15 16 16 13 17 13 18 18 18 18 16 16 14 12 12 13 10
41 39 36 30 26 25 23 23 21 21 20 10 14 19 18 16 17 18 26 27 27 25 25 28 28 24 23 23 21 23 17 20 19 20 15 13 11 11 13 15 11 12 12 10
37 34 30 28 26 23 22 21 21 19 22 24 19 13 13 13 12 17 19 24 22 28 29 28 29 31 30 24 25 21 22 20 18 19 22 20 18 15 15 16 17 14 13 12
34 31 29 28 25 23 24 20 19 19 22 23 16 17 22 20 22 19 23 24 27 25 25 30 31 27 25 31 32 17 15 14 16 23 18 19 15 15 15 15 17 17 16 15
31 29 27 24 22 21 22 21 8 12 18 17 12 11 14 10 12 18 23 28 26 27 25 23 20 16 17 13 12 14 19 16 20 20 22 20 17 14 13 13 13 16 16 15
30 26 23 20 21 23 23 24 20 11 16 8 20 20 14 11 14 21 19 20 20 13 17 12 11 15 10 10 14 13 12 12 10 10 11 14 15 14 13 13 13 15 16 15
29 28 24 24 24 19 20 20 21 24 24 28 21 15 17 16 14 15 19 17 11 6 10 11 13 16 15 20 20 15 10 8 6 7 8 10 12 13 13 13 14 15 15 16
24 24 24 14 18 17 18 11 13 13 12 24 30 25 22 16 16 16 17 9 7 4 7 7 5 7 18 19 21 21 19 16 15 13 11 12 12 13 13 14 15 17 17 17
21 24 22 15 14 9 10 10 10 10 13 11 17 29 27 23 20 13 13 8 8 4 8 5 4 15 19 19 16 17 21 22 23 22 19 16 15 15 14 15 16 17 18 18
16 18 18 9 11 11 9 12 10 9 11 14 14 19 23 22 21 8 8 7 6 5 5 4 9 16 11 10 12 12 13 16 18 19 18 16 16 16 15 15 17 16 16 17
15 10 12 8 7 9 11 12 14 15 7 10 14 18 16 16 12 6 6 6 5 4 4 4 13 10 10 10 9 9 10 12 14 15 16 16 15 15 14 14 16 17 16 15
8 7 6 11 10 10 11 17 15 12 9 11 14 18 7 11 5 6 5 6 4 4 5 11 8 9 8 8 7 8 8 8 9 10 10 10 10 10 10 11 13 14 14 14
5 5 3 7 6 8 11 13 13 12 14 17 12 6 6 5 4 6 5 5 4 8 7 6 7 6 5 5 4 5 6 7 6 7 8 7 8 9 10 11 13 14 14 15
3 5 7 10 10 9 10 12 15 18 19 14 6 6 6 5 4 4 7 9 6 6 6 8 8 6 5 3 3 5 6 6 7 7 8 8 9 10 11 13 14 14 15 15

GFSNW_700_spd_162.txt.gz
Wind_Speed
55 36 30 37 35 28 31 28 28 28 24 26 33 40 30 14 14 21 20 19 13 14 13 13 17 16 14 10 10 11 12 13 16 19 18 19 21 25 26 26 25 29 26 26
58 47 42 38 36 30 30 28 28 27 24 34 35 27 31 19 17 15 15 17 16 11 13 11 15 17 14 12 9 7 6 8 15 16 16 16 20 21 25 27 28 31 19 30
49 51 47 39 36 33 31 33 31 28 27 33 25 21 20 26 17 17 16 13 14 17 18 17 12 11 10 17 17 17 18 18 17 22 20 21 31 28 26 27 22 29 32 34
47 47 49 43 39 33 34 37 33 33 30 41 28 22 18 24 21 21 14 17 19 17 15 16 19 19 18 17 16 18 18 23 21 28 28 27 31 33 32 34 38 35 37 36
51 46 40 49 40 36 45 41 34 29 19 22 37 26 29 23 23 19 18 22 13 17 20 17 11 8 11 18 14 15 16 27 21 35 24 28 35 32 32 32 33 36 37 43
53 49 47 43 43 41 47 42 34 14 26 16 24 34 29 24 19 18 20 11 17 12 12 17 19 23 23 17 13 17 20 24 23 40 23 24 28 27 28 32 31 31 31 31
51 45 38 42 46 40 39 40 21 24 27 27 34 28 26 24 23 22 18 20 16 13 17 25 26 28 27 27 28 27 28 29 26 32 22 18 29 20 24 30 29 26 24 24
46 43 46 47 44 40 39 27 30 25 22 21 23 24 16 21 21 20 23 11 9 14 24 21 16 15 18 26 29 30 31 29 24 25 22 26 28 22 24 22 26 14 19 20
42 39 46 48 46 40 35 35 34 27 22 23 15 19 24 21 23 21 22 25 24 21 19 12 11 10 12 10 6 14 22 25 27 18 14 15 23 13 22 10 19 7 8 9
43 40 53 49 49 43 37 32 33 32 26 18 14 20 17 14 14 14 10 12 12 15 20 18 15 21 19 25 23 11 20 21 27 27 22 21 23 21 11 12 9 12 15 13
43 46 56 44 48 47 38 34 32 29 26 23 28 26 19 15 18 18 16 16 19 21 23 20 18 16 16 17 20 17 15 15 22 26 24 21 21 23 12 8 15 15 13 15
42 50 58 45 48 49 36 29 31 25 28 22 27 32 33 27 20 22 23 14 10 16 16 20 12 15 13 9 14 12 15 22 17 16 16 18 11 16 10 12 14 9 10 12
38 40 51 50 47 39 35 32 29 23 22 26 28 29 28 27 22 23 28 26 21 16 11 16 18 14 10 12 11 14 18 16 25 17 13 11 8 12 18 13 16 14 12 11
46 43 48 48 37 31 32 31 24 25 25 24 21 13 22 22 24 29 31 29 29 25 27 23 24 23 14 16 14 15 16 17 8 19 21 17 22 14 15 20 14 13 12 14
46 49 46 37 33 30 27 27 25 24 22 13 15 23 14 15 17 23 26 29 30 27 24 26 28 24 22 25 24 27 21 24 21 25 21 21 14 15 16 16 14 13 12 13
43 40 38 34 31 29 28 28 27 24 22 20 20 12 12 14 16 16 18 18 20 26 27 31 33 29 24 23 26 25 16 19 24 24 31 19 22 19 19 16 16 16 16 15
39 38 35 30 29 29 29 22 24 20 18 20 17 17 18 14 18 18 17 18 23 27 32 35 32 27 27 31 36 28 24 21 23 13 24 25 18 21 17 16 16 15 17 18
40 33 29 26 27 25 24 21 14 18 19 21 10 8 11 12 18 19 25 24 24 29 32 32 31 23 27 26 27 18 16 20 21 19 20 22 23 19 16 16 16 15 17 16
34 31 29 26 26 23 22 20 17 12 19 11 14 15 7 10 14 18 18 24 27 24 25 32 26 24 15 11 14 17 18 17 17 20 18 17 15 16 15 14 13 14 14 15
36 31 26 22 22 19 18 17 17 18 21 23 21 8 17 16 14 15 16 13 18 11 20 15 19 19 18 17 21 20 20 19 16 11 10 10 10 11 12 14 15 16 15 15
31 28 24 20 16 16 16 12 11 12 16 26 27 25 22 15 13 12 14 9 9 8 9 10 4 7 16 22 25 23 20 20 18 14 9 9 9 10 12 14 15 17 15 16
25 23 16 14 15 10 9 9 9 10 13 16 13 20 27 24 15 12 9 6 8 3 7 7 4 15 19 18 19 19 17 15 18 21 18 17 17 16 15 14 13 14 13 14
20 23 19 10 10 9 9 10 10 12 12 14 11 17 21 24 19 9 7 7 5 4 6 4 9 16 14 15 14 14 14 14 16 17 18 21 20 17 16 15 13 12 12 13
20 18 14 9 7 9 12 15 13 19 13 12 16 13 12 17 14 10 6 7 6 5 5 7 16 10 12 12 12 13 9 8 10 11 13 14 15 16 16 15 14 14 14 14
13 7 8 11 12 13 14 19 15 11 16 10 10 15 11 15 8 8 6 7 5 6 8 13 10 9 10 9 8 6 5 5 7 8 10 11 12 12 11 11 11 10 12 13
5 8 5 8 11 14 14 16 18 13 11 12 14 9 4 4 5 6 5 4 5 11 10 8 6 7 8 8 5 3 4 5 6 6 6 6 7 7 9 9 9 10 11 13
7 5 8 10 6 7 6 10 14 14 16 14 7 6 5 6 4 5 8 9 10 7 5 6 7 8 7 7 5 3 4 5 5 5 6 6 6 6 7 8 9 10 12 13

GFSNW_700_spd_165.txt.gz
Wind_Speed
36 41 42 38 28 27 28 25 28 23 22 28 34 39 40 38 23 15 18 20 15 18 18 12 10 14 10 8 12 14 10 6 13 21 21 20 21 24 19 13 12 23 18 26
28 35 42 43 42 29 27 27 27 22 25 30 36 35 36 36 30 15 13 22 15 15 15 10 16 17 17 7 10 14 18 7 6 10 12 12 21 24 18 15 16 25 7 21
32 31 33 43 40 40 29 25 29 33 33 33 32 34 33 27 32 23 19 18 21 26 18 17 18 16 13 24 18 14 15 18 14 16 10 15 26 24 24 22 25 22 35 32
36 36 35 36 32 32 24 31 17 33 30 37 33 28 15 26 28 27 21 24 25 22 20 21 22 24 21 16 17 18 20 25 26 34 30 23 29 34 33 31 31 30 38 41
38 39 40 38 32 29 30 38 19 36 32 16 33 28 33 20 23 25 21 20 24 16 20 21 17 21 21 24 23 22 24 22 18 29 23 25 32 31 30 33 36 35 37 40
40 40 42 39 30 43 28 36 41 14 23 23 26 37 31 31 21 21 26 10 16 21 19 24 27 26 25 23 22 22 18 16 15 36 16 21 31 27 28 29 30 31 35 33
43 42 42 40 32 34 32 33 26 35 15 23 24 23 36 28 23 16 14 14 16 15 22 20 23 28 31 32 32 31 32 30 23 30 19 12 23 20 17 23 27 27 26 29
41 40 39 39 34 37 35 33 39 27 24 19 17 20 22 28 29 26 30 17 19 26 20 22 22 26 28 32 29 28 33 29 18 11 15 29 32 26 28 22 22 16 15 17
35 33 33 36 36 35 35 34 38 33 22 29 22 22 24 25 26 24 26 27 21 21 23 20 11 8 8 8 7 4 13 18 26 16 7 5 4 3 9 18 28 17 14 12
36 35 34 33 37 42 32 35 38 38 24 18 20 25 22 24 21 25 21 22 27 24 20 20 15 17 18 11 15 15 15 26 32 29 15 19 26 26 21 10 8 13 14 20
34 33 34 32 44 43 35 36 37 35 26 18 13 15 25 26 27 30 18 20 24 24 25 22 19 14 14 16 19 21 14 14 18 24 13 13 14 13 16 17 27 10 18 15
31 33 34 32 47 47 40 43 34 31 24 28 25 19 15 20 27 23 21 21 13 17 16 21 11 13 13 12 8 12 10 22 15 17 11 13 13 18 29 23 21 14 15 11
32 33 33 38 48 43 38 39 31 25 31 31 27 26 24 25 22 21 27 25 22 15 20 21 12 14 12 8 9 13 12 14 17 22 26 26 27 17 16 12 9 13 15 12
31 37 39 44 48 38 44 38 21 29 28 24 18 25 29 28 32 31 26 30 29 24 20 19 18 16 12 17 14 17 14 14 18 18 20 15 18 19 23 18 10 16 18 13
27 39 42 45 45 34 47 38 24 24 27 13 21 25 20 18 28 30 31 29 29 30 27 24 26 29 26 29 27 26 21 19 17 22 20 23 25 20 19 16 14 17 15 14
32 40 41 44 37 36 38 34 31 23 20 24 20 11 10 22 18 19 25 28 29 31 35 34 35 32 25 19 27 30 20 13 20 28 29 31 28 26 21 14 19 18 16 16
30 33 39 34 39 35 38 36 32 25 18 19 15 18 15 11 13 17 17 16 19 20 23 29 32 32 19 26 35 29 24 23 21 23 24 19 16 19 15 17 18 17 15 15
40 42 44 40 35 32 31 28 21 23 21 17 9 6 8 12 19 19 18 19 19 23 24 31 32 28 28 28 27 23 21 19 16 19 23 27 22 19 20 18 17 16 15 14
44 44 42 36 31 31 31 21 12 13 20 15 17 18 9 10 15 17 20 20 22 25 25 28 30 29 24 20 13 13 16 19 16 18 22 21 21 17 16 16 16 14 13 12
44 39 35 32 29 24 23 18 16 17 16 19 24 18 20 12 6 7 6 9 17 14 22 24 23 27 25 22 25 24 23 19 20 21 23 21 13 12 11 11 12 13 13 14
38 35 34 29 26 20 16 12 9 9 11 19 22 19 14 12 10 14 8 8 10 9 12 14 10 13 23 24 23 20 18 19 21 22 24 17 7 7 9 9 11 12 13 13
32 29 25 20 17 9 9 8 9 9 12 17 13 17 23 24 23 15 8 10 10 4 12 12 6 14 16 15 15 18 19 19 19 21 20 17 16 11 12 11 13 12 11 13
25 23 18 11 11 9 9 11 11 11 13 11 12 16 17 20 22 13 4 4 4 8 8 3 11 11 9 12 15 16 15 15 15 14 15 18 21 20 15 14 14 13 12 13
18 14 12 8 6 9 12 20 17 16 14 14 14 13 16 19 15 10 6 7 7 6 5 9 13 7 9 11 13 13 11 10 8 8 9 12 15 17 17 17 16 14 14 15
9 8 7 10 10 11 13 16 19 19 17 22 13 13 15 14 11 10 8 8 6 8 9 11 7 8 8 9 8 8 6 5 5 7 8 10 12 14 15 15 14 13 12 12
8 7 6 8 13 15 18 16 18 18 12 11 11 8 8 9 6 7 6 6 7 9 11 8 8 7 6 6 5 4 3 4 6 7 7 7 7 8 8 9 9 9 9 9
7 6 9 12 10 6 8 11 10 14 17 18 9 7 5 7 5 7 9 6 8 7 5 6 5 5 5 5 4 3 3 3 5 6 6 6 6 6 6 7 8 8 9 11

GFSNW_700_spd_171.txt.gz
Wind_Speed
32 32 31 26 19 25 20 23 18 17 17 21 29 37 39 37 37 17 33 27 25 26 25 23 24 14 21 5 7 13 15 9 12 15 16 12 13 14 13 6 5 9 6 23
26 26 28 30 33 30 27 23 21 18 15 23 28 32 34 34 36 30 24 22 20 25 27 25 22 25 15 11 19 10 8 8 4 2 6 9 13 17 14 6 8 13 6 17
19 19 21 24 27 29 24 26 21 23 21 25 24 27 32 34 33 33 31 31 19 18 22 27 31 27 25 29 16 18 16 16 16 13 14 17 22 22 16 22 13 18 32 39
21 20 19 18 18 24 28 25 27 24 19 29 30 29 28 27 30 30 26 29 34 24 20 26 25 27 33 24 16 24 19 24 26 27 24 24 30 35 31 27 28 21 44 40
23 22 21 19 19 19 23 29 29 27 25 20 25 27 33 31 27 26 25 22 26 37 32 32 30 24 20 23 27 20 21 23 21 24 24 25 36 34 33 33 33 35 40 48
24 23 22 21 20 20 22 24 27 23 23 23 28 32 30 29 29 31 30 24 25 27 28 31 31 36 30 26 25 25 23 24 27 26 24 25 29 24 24 27 24 23 30 31
26 25 24 23 21 21 21 23 27 27 34 28 29 30 31 31 28 32 25 23 29 27 30 32 35 35 34 28 26 28 23 23 19 13 13 9 20 21 15 21 22 20 20 16
27 26 25 25 24 24 24 23 21 22 31 27 26 22 23 25 29 31 28 27 25 25 30 31 26 26 24 26 28 29 29 29 21 15 17 24 32 34 14 7 13 19 20 22
28 29 27 26 26 26 26 24 22 23 28 29 27 30 22 24 22 24 32 29 17 24 26 20 4 4 10 8 6 11 19 28 30 19 9 5 12 10 7 19 24 15 11 8
29 29 28 27 26 26 26 24 21 27 34 34 27 19 22 25 20 23 17 20 26 21 25 22 17 19 18 10 13 18 17 14 25 28 18 16 30 21 19 9 6 6 9 17
29 30 29 26 25 25 27 25 28 31 38 42 33 31 28 24 23 25 22 22 28 23 28 20 14 14 16 16 24 22 21 14 19 17 12 13 22 15 15 10 13 15 20 13
30 30 28 24 24 24 25 26 29 35 32 27 31 30 30 29 23 27 24 28 11 24 21 22 18 18 18 19 21 18 20 25 18 18 12 12 13 15 13 17 21 18 22 15
26 25 26 26 26 27 28 27 30 32 39 35 38 38 24 32 23 23 27 28 18 19 19 21 21 20 17 18 21 23 26 26 17 13 16 25 21 20 25 22 22 16 15 18
24 25 25 26 29 28 30 30 28 26 33 31 35 33 36 25 35 24 29 32 25 22 21 20 20 20 19 21 22 23 19 20 22 27 20 15 10 12 11 15 17 17 16 15
25 25 25 27 28 30 33 35 31 26 27 16 26 33 31 25 20 18 20 29 26 26 24 25 24 24 26 30 31 34 29 29 23 23 20 21 20 18 19 22 21 22 20 18
24 24 25 28 29 29 31 33 35 30 32 34 22 10 26 20 18 21 23 26 26 29 29 30 31 33 30 21 31 37 35 28 21 23 19 24 23 22 20 18 11 13 17 16
23 23 24 27 28 29 34 32 31 33 22 22 12 9 14 21 21 22 25 26 28 27 31 37 39 38 29 34 41 37 31 22 21 24 26 27 22 18 15 16 19 17 16 16
23 22 22 22 26 28 31 22 19 24 24 22 9 10 13 18 18 21 20 21 22 28 25 28 34 31 29 32 33 30 25 22 21 20 21 18 16 15 15 18 20 19 20 20
21 24 16 17 25 33 28 33 11 26 20 13 11 15 12 9 11 14 18 14 21 25 28 32 27 26 25 31 28 24 20 16 14 14 14 16 18 20 21 20 19 20 20 19
20 15 24 30 27 21 27 23 24 31 28 25 19 16 15 14 13 13 13 12 17 17 23 22 30 40 37 37 34 34 28 23 22 21 18 20 22 23 22 23 22 21 20 19
26 17 26 20 25 27 14 12 19 14 13 20 26 22 22 21 17 15 9 10 7 9 19 21 22 36 36 26 23 24 25 22 21 19 19 21 22 22 22 20 20 17 11 11
33 36 36 29 28 9 7 11 8 8 11 10 10 11 22 23 20 16 11 14 7 8 9 10 13 24 21 16 9 9 11 12 15 18 20 23 22 21 18 19 20 10 9 9
34 37 31 18 15 10 8 12 9 10 9 8 8 11 13 16 19 16 8 8 10 8 9 7 13 11 13 10 8 10 15 16 17 19 20 20 19 18 17 19 19 19 14 12
27 18 13 11 7 7 11 13 14 12 9 10 11 9 7 14 16 12 8 11 13 9 10 15 12 11 13 12 11 10 12 14 16 16 14 13 12 12 12 15 17 18 16 15
13 7 7 8 7 9 9 11 13 14 16 17 13 14 20 21 14 13 10 6 8 8 10 9 6 10 12 10 8 8 9 9 8 8 9 10 10 10 10 12 13 15 17 17
7 7 6 7 9 12 12 10 9 14 16 17 17 18 10 12 8 9 11 8 8 10 10 10 7 7 9 8 7 7 7 6 6 6 7 8 9 9 9 9 10 12 13 14
10 12 16 12 9 9 9 11 13 17 18 20 16 10 11 7 7 9 11 18 14 8 6 5 8 8 7 7 7 7 6 6 6 6 7 8 9 9 9 8 8 9 9 10